Showing default

TIANTONG-1 1, 41725

Orbit data source: Space-Track

TIANTONG-1 1, 41725 is a payload satellite owned by CAST (CN) in GEO that was launched on Fri, 05 Aug 2016 UTC via a CHANG ZHENG 3B launch vehicle from the Xichang Space Center, China (XSC). Payload-class satellites include a variety of spacecraft equipped with specific instruments for various scientific and technological missions. These include communications satellites like Starlink; space stations such as the ISS; scientific satellites like the Hubble; Earth observation satellites from companies like Planet Labs, Umbra, and HawkEye 360; GPS; miniature CubeSats for education and research; and military/defense satellites.

Not visible in the next 10 days
Identifier
41725, 2016-048A
Orbit
GEO
Country
Flag of CNCN / PRC
Related business
Manufacturer
CAST
Mission
Operational Civil Communications
Bus & Motor
DFH-4, DFH-4 LAE
Mass
~5,200 kg wet, ~2,500 kg dry
Launch date (UTC)
2016-08-05 (10 years ago)
Launch vehicle
CHANG ZHENG 3B
Launch site
Xichang Space Center, China (XSC)
Object type
Payload
Rocket body
Debris
Shape & HBR
Box + 2 Pan, 15.0 m
Radar Cross Section
34.063 m², Large (>1 m²)

Expand to show TLE details & history
Last TLE update: 21 hours ago

TLE from 21 hours ago
0 TIANTONG-1 1
1 41725U 16048A   26172.55273683 -.00000320  00000-0  00000+0 0  9990
2 41725   3.8584  43.4650 0005692  45.4292 121.2573  1.00273084 36318
Epoch: 2026-06-21T13:15Z
TLE epoch observation values (Epoch: 2026-06-21T13:15:56.462Z)
Latitude
0.87687°
Longitude
101.51395°
Altitude
35,798.138 km
Speed
3.074 km/s
True Right ascension
14h 01m 00s
True Declination
0° 52' 34"
Sunlit
Object was in daylight at epoch
Visualization orbit readout
Latitude
Unknown
Longitude
Unknown
Altitude
Unknown
Speed
Unknown
Apparent Right ascension
Unknown
Apparent Declination
Unknown
Sunlit
N/A
Visualization observer readout
Local Sidereal Time
21:39:22
Azimuth
Unknown
Elevation
Unknown
Doppler factor
Unknown
Orbital elements
Apogee altitude
35,811.295 km
Perigee altitude
35,763.294 km
Semi-major axis
42,165.431 km
Eccentricity
0.00057
Inclination
3.8584°
RAAN
43.465°
Arg. of periapsis
45.4292°
True anomaly
121.31304°
Mean anomaly
121.2573°
Eccentric anomaly
121.28517°
Mean motion
0.25067 °/min
Orbital period
1,436.13 mins
BSTAR
0
Loading maneuver chart data...
Computing Atmospheric mass density...
Loading historical data...
Loading historical data...
Loading historical data...
Loading historical data...
Loading historical data...
Loading historical data...
Loading historical data...
Other satellites on launch #48 in the year 2016 (2016-08-05 UTC)

Documentation

Showing up to 5 results
|